[[{"header":{"parameterUnit":"m.s-1","parameterCategory":1,"la1":30.2991,"la2":30.254,"lo1":-89.0895,"lo2":-89.0444,"dy":0.0017,"dx":0.0017,"nx":28,"ny":28,"refTime":"2025-03-30T09:00:00:Z","depth":0,"parameterNumber":2,"parameterNumberName":"U-component_of_WINDS"},"data":[0,0,0,0,0,0,0,0,0,0,0,0,0,0,0,0,0,0,0,0,0,0,0,0,0,0,0,0,0,0,0,0,0,0,0,0,0,0,0,0,0,0,0,0,0,0,0,0,0,0,0,0,0,0,0,0,0,0,1.258,1.258,0,1.2596,1.2596,1.2596,1.257,1.2569,1.2568,1.2567,1.2582,1.2584,1.2585,0,0,0,0,0,0,0,0,0,0,0,0,0,1.2526,1.2527,1.258,1.258,1.2581,1.2596,1.2596,1.2596,1.257,1.2569,1.2568,1.2567,1.2582,1.2583,1.2585,0,0,0,0,0,0,0,0,0,0,0,0,0,1.2546,1.2527,1.258,1.2569,1.2568,1.2596,1.2596,1.2597,1.257,1.2569,1.2567,1.2566,1.2582,1.2583,1.2585,1.2624,0,0,1.2591,1.2592,0,0,0,0,0,0,0,0,1.2545,1.2548,1.2571,1.257,1.2569,1.258,1.2583,1.2606,1.2571,1.257,1.2567,1.2566,1.2583,1.2584,1.259,1.2625,1.2625,1.2591,1.2592,1.2593,1.2594,0,0,0,0,0,0,0,1.2544,1.2548,1.2586,1.2571,1.257,1.2563,1.2565,1.2587,1.2583,1.2569,1.2568,1.257,1.2582,1.2588,1.259,1.2625,1.2591,1.2593,1.2594,1.2595,1.2692,1.2694,0,0,0,0,0,0,1.2544,1.2547,1.2586,1.2587,1.2554,1.2565,1.2567,1.2578,1.2583,1.2583,1.2571,1.2569,1.2586,1.2588,1.2591,1.2636,1.2593,1.2595,1.2596,1.2691,1.2693,1.2694,0,0,0,0,0,0,1.2543,1.2548,1.2585,1.2566,1.2571,1.2568,1.258,1.2579,1.2585,1.2584,1.2583,1.2578,1.2585,1.2588,1.2616,1.2637,1.2596,1.2597,1.2689,1.2691,1.2693,1.2728,0,0,0,0,0,0,1.2541,1.2548,1.2562,1.2567,1.2572,1.2611,1.2581,1.258,1.2589,1.2586,1.2591,1.2591,1.2584,1.2613,1.2618,1.2638,1.2599,1.2687,1.269,1.2693,1.2725,1.2731,1.2737,0,0,0,0,0,1.254,1.2571,1.2563,1.2568,1.259,1.2612,1.2615,1.2607,1.259,1.2605,1.2605,1.259,1.2634,1.2616,1.2621,1.2643,1.2686,1.2689,1.2692,1.2723,1.273,1.2736,0,0,0,0,0,0,1.2569,1.2572,1.2563,1.2597,1.2604,1.2607,1.2626,1.2615,1.2627,1.2623,1.2613,1.2614,1.2644,1.2646,1.2627,1.268,1.2657,1.2661,1.2678,1.2685,1.2691,1.269,1.26,0,0,0,0,0,1.258,1.2597,1.2598,1.2628,1.2633,1.2629,1.2638,1.2631,1.2638,1.2641,1.2643,1.265,1.2665,1.2675,1.2689,1.2725,1.2726,1.2742,1.2748,1.2753,1.2757,1.2776,1.2783,1.2705,1.2705,1.2705,0,0,1.2601,1.2605,1.2617,1.2634,1.2639,1.2658,1.2631,1.2652,1.2665,1.2644,1.2671,1.2672,1.2679,1.2711,1.2726,1.2714,1.2779,1.2757,1.2761,1.2762,1.278,1.2788,1.2794,1.2707,1.2707,1.2707,0,0,1.265,1.2655,1.268,1.2686,1.2694,1.2691,1.2698,1.2702,1.2702,1.2729,1.2714,1.2729,1.2755,1.2761,1.2768,1.2819,1.2807,1.2824,1.2854,1.2873,1.2879,1.2884,1.2903,1.291,1.2828,1.2828,1.2828,0,1.2676,1.2704,1.2695,1.2717,1.2725,1.2707,1.2733,1.2738,1.275,1.2756,1.2743,1.2776,1.2779,1.2813,1.2826,1.2831,1.2838,1.2823,1.2879,1.2884,1.2889,1.2907,1.2914,1.283,1.283,1.283,1.2829,0,1.2735,1.2754,1.2774,1.2787,1.2797,1.282,1.2815,1.2827,1.2819,1.2818,1.2845,1.2848,1.2863,1.287,1.2863,1.2903,1.2895,1.2881,1.2857,1.2899,1.2915,1.2922,1.2833,1.2832,1.2832,1.2831,0,0,1.2803,1.2811,1.2818,1.2824,1.2832,1.2846,1.2869,1.2883,1.2893,1.2902,1.2921,1.2944,1.293,1.2937,1.2931,1.2947,1.2988,1.293,1.293,1.2941,1.3032,1.3043,1.3051,1.298,1.2981,1.2982,1.3032,0,1.2852,1.2892,1.2885,1.2923,1.294,1.2924,1.2944,1.295,1.295,1.2964,1.2963,1.2979,1.296,1.2965,1.298,1.298,1.3006,1.2976,1.2997,1.2998,1.2996,1.306,1.3072,1.3118,1.3038,1.3039,1.304,0,1.2914,1.2926,1.2967,1.2972,1.2979,1.2997,1.3009,1.3024,1.3031,1.3029,1.3038,1.3028,1.305,1.3026,1.3056,1.3036,1.3044,1.3045,1.3046,1.3048,1.3021,1.3063,1.3133,1.314,1.305,1.3049,1.3048,0,1.296,1.2986,1.3013,1.3019,1.3025,1.3038,1.3042,1.3048,1.3057,1.3068,1.3074,1.3087,1.3094,1.3105,1.3099,1.3082,1.313,1.3106,1.3129,1.313,1.314,1.314,1.3213,1.3145,1.3145,1.3145,1.3145,0,1.3015,1.3041,1.3034,1.3051,1.3079,1.3071,1.3098,1.3099,1.3105,1.3122,1.3108,1.3124,1.3114,1.3129,1.3125,1.3151,1.3154,1.3153,1.3152,1.3154,1.3155,1.316,1.3156,1.3147,1.3147,1.3146,1.3146,0,1.3071,1.3068,1.3097,1.3101,1.3102,1.3123,1.3126,1.3142,1.314,1.3161,1.3166,1.3163,1.318,1.3175,1.3193,1.319,1.3223,1.3217,1.3221,1.322,1.3244,1.3241,1.3322,1.3332,1.3259,1.3259,1.326,0,1.3107,1.3126,1.3132,1.3143,1.3147,1.3164,1.3174,1.3166,1.3177,1.3186,1.3201,1.3217,1.3229,1.3257,1.3257,1.327,1.3265,1.3292,1.3267,1.3269,1.3265,1.3264,1.3266,1.3297,1.3298,1.3299,1.3299,0,1.317,1.3168,1.3182,1.3196,1.3208,1.3219,1.3228,1.3237,1.323,1.3243,1.326,1.327,1.3289,1.3305,1.3318,1.3321,1.3309,1.3307,1.3314,1.3317,1.3318,1.3318,1.3235,1.3306,1.3305,1.3305,1.3304,1.3304,1.3217,1.3233,1.3241,1.3257,1.3264,1.3273,1.3288,1.3288,1.3303,1.3318,1.3313,1.3333,1.3339,1.3355,1.336,1.3376,1.3365,1.3374,1.3376,1.3379,1.3382,1.3316,1.3378,1.3378,1.3377,1.3377,1.3377,0,1.328,1.3284,1.3299,1.3313,1.3326,1.3315,1.3324,1.3336,1.3354,1.3362,1.3374,1.3395,1.341,1.3411,1.3425,1.3438,1.3433,1.3442,1.3441,1.3441,1.339,1.3384,1.3445,1.3445,1.3445,1.3445,1.3445,1.3445,1.3314,1.3341,1.334,1.337,1.3374,1.3394,1.34,1.3409,1.3415,1.3438,1.3451,1.3452,1.3456,1.3471,1.3485,1.3485,1.3491,1.3502,1.35,1.3452,1.3445,1.3439,1.3432,1.3503,1.3503,1.3549,1.355,1.355]},{"header":{"parameterUnit":"m.s-1","parameterCategory":1,"la1":30.2991,"la2":30.254,"lo1":-89.0895,"lo2":-89.0444,"dy":0.0017,"dx":0.0017,"nx":28,"ny":28,"refTime":"2025-03-30T09:00:00:Z","depth":0,"parameterNumber":3,"parameterNumberName":"V-component_of_WINDS"},"data":[0,0,0,0,0,0,0,0,0,0,0,0,0,0,0,0,0,0,0,0,0,0,0,0,0,0,0,0,0,0,0,0,0,0,0,0,0,0,0,0,0,0,0,0,0,0,0,0,0,0,0,0,0,0,0,0,0,0,3.981,3.9811,0,3.9924,3.9926,3.9927,3.9944,3.9943,3.9942,3.9941,4.006,4.0064,4.0068,0,0,0,0,0,0,0,0,0,0,0,0,0,3.961,3.9614,3.981,3.9811,3.9813,3.9924,3.9926,3.9927,3.9944,3.9943,3.9942,3.9941,4.0059,4.0063,4.0068,0,0,0,0,0,0,0,0,0,0,0,0,0,3.9708,3.9615,3.981,3.9835,3.9838,3.9924,3.9926,3.9928,3.9945,3.9943,3.9942,3.994,4.0057,4.0063,4.0069,4.0138,0,0,4.0088,4.0091,0,0,0,0,0,0,0,0,3.9703,3.9715,3.983,3.9833,3.9837,3.9918,3.9899,3.9998,3.9945,3.9904,3.9941,3.9939,4.0014,4.0024,4.0049,4.0144,4.0149,4.0089,4.0092,4.0095,4.0097,0,0,0,0,0,0,0,3.9696,3.9711,3.9855,3.9831,3.9836,3.9842,3.9854,3.9918,3.9967,3.9908,3.9909,3.9922,4.0016,4.0043,4.0052,4.0151,4.0088,4.0094,4.0098,4.01,4.0312,4.0314,0,0,0,0,0,0,3.9684,3.9705,3.9852,3.9859,3.9765,3.9846,3.986,3.9894,3.9966,3.9975,3.9924,3.9923,4.0033,4.0044,4.0056,4.0144,4.0095,4.0101,4.0104,4.031,4.0312,4.0314,0,0,0,0,0,0,3.968,3.9697,3.9847,3.9782,3.9802,3.9851,3.9889,3.9897,3.9924,3.9978,3.9987,3.9942,4.0032,4.0047,4.0118,4.0148,4.0103,4.0109,4.0308,4.0311,4.0313,4.0319,0,0,0,0,0,0,3.9674,3.9695,3.9721,3.9783,3.9805,3.9906,3.9891,3.99,3.9934,3.9934,3.9997,4.0006,4.0032,4.0109,4.0124,4.0156,4.0114,4.0305,4.0309,4.0312,4.0316,4.0322,4.0326,0,0,0,0,0,3.9667,3.9718,3.9722,3.974,3.9838,3.9908,3.9921,3.9949,3.9936,3.9964,3.9999,4.0004,4.0142,4.0116,4.0134,4.0167,4.0304,4.0308,4.0312,4.0314,4.0321,4.0326,0,0,0,0,0,0,3.9658,3.9726,3.9732,3.9804,3.985,3.9911,3.9946,3.9954,4.0005,4.0003,4.0037,4.0051,4.0121,4.0151,4.0121,4.024,4.0222,4.023,4.0218,4.0224,4.0229,4.0221,4.0119,0,0,0,0,0,3.9665,3.9715,3.9772,3.983,3.9853,3.9895,3.9927,3.9945,3.9994,4.0013,4.0054,4.0102,4.0157,4.0192,4.0245,4.0321,4.0336,4.0353,4.0358,4.0362,4.0369,4.0414,4.0423,4.0329,4.0328,4.0328,0,0,3.9678,3.9722,3.9751,3.983,3.9867,3.992,3.9912,3.9967,4.0007,4.0022,4.0092,4.0124,4.018,4.0255,4.0289,4.0282,4.0398,4.0367,4.037,4.0375,4.042,4.0428,4.0436,4.0331,4.0331,4.033,0,0,3.9731,3.9768,3.9822,3.9861,3.9918,3.9946,3.9959,4.0019,4.0041,4.0112,4.0125,4.0174,4.0266,4.0307,4.034,4.0411,4.0419,4.0427,4.0453,4.0497,4.0505,4.0512,4.0539,4.0549,4.0434,4.0434,4.0434,0,3.9741,3.982,3.9849,3.9905,3.994,3.9956,4.0013,4.0048,4.012,4.0145,4.0136,4.0254,4.0293,4.0379,4.0396,4.0421,4.0439,4.042,4.0501,4.0508,4.0515,4.0542,4.0552,4.0434,4.0434,4.0434,4.0434,0,3.9832,3.9886,3.9923,3.9993,4.0032,4.0088,4.0126,4.0163,4.0178,4.0208,4.0281,4.0329,4.0393,4.0415,4.0429,4.0504,4.0498,4.0494,4.0477,4.0525,4.0551,4.0561,4.0435,4.0435,4.0435,4.0435,0,0,3.9881,3.9967,3.9981,4.0014,4.008,4.0123,4.0181,4.0244,4.0276,4.0325,4.0376,4.0455,4.0453,4.049,4.051,4.0549,4.0605,4.0541,4.0543,4.0553,4.0694,4.0697,4.0708,4.0611,4.0613,4.0614,4.069,0,3.9943,4.0045,4.0074,4.0161,4.0214,4.0231,4.0282,4.0329,4.0359,4.0409,4.0442,4.0499,4.0491,4.0514,4.0553,4.059,4.0634,4.0585,4.066,4.0663,4.0647,4.0721,4.0725,4.0793,4.07,4.0701,4.0703,0,4.0029,4.0081,4.0173,4.0235,4.0258,4.0303,4.0365,4.0412,4.0466,4.0486,4.0528,4.0546,4.0609,4.0587,4.0676,4.0642,4.0675,4.0698,4.0702,4.0711,4.0686,4.0735,4.0815,4.0826,4.0718,4.0717,4.0716,0,4.0059,4.0152,4.022,4.0248,4.032,4.0352,4.0384,4.0437,4.0474,4.0528,4.0553,4.0614,4.0647,4.0695,4.0729,4.071,4.0816,4.0797,4.0836,4.0835,4.0858,4.0856,4.0947,4.0876,4.0876,4.0876,4.0875,0,4.0126,4.0182,4.0235,4.0277,4.0342,4.0375,4.0438,4.0471,4.0519,4.0569,4.0588,4.0635,4.0676,4.0729,4.0756,4.0828,4.0842,4.0861,4.0868,4.0861,4.0858,4.0883,4.088,4.0878,4.0878,4.0877,4.0877,0,4.017,4.0207,4.0283,4.0347,4.0364,4.0409,4.0465,4.0507,4.0539,4.0602,4.0619,4.0669,4.0733,4.0771,4.0852,4.087,4.095,4.0953,4.0931,4.0935,4.0972,4.0969,4.1084,4.1101,4.1016,4.1017,4.1018,0,4.0211,4.0255,4.0324,4.0359,4.0392,4.0447,4.0486,4.0521,4.056,4.0627,4.0662,4.0728,4.0782,4.0883,4.0928,4.099,4.0997,4.1033,4.1007,4.0999,4.1001,4.0999,4.1005,4.1038,4.1039,4.1039,4.104,0,4.0281,4.0298,4.0351,4.0413,4.0458,4.0508,4.0558,4.0586,4.063,4.0674,4.0739,4.0781,4.0865,4.093,4.0997,4.1032,4.1045,4.1048,4.1061,4.1054,4.104,4.1051,4.0945,4.1045,4.1045,4.1044,4.1044,4.1044,4.0326,4.0367,4.0423,4.0484,4.0525,4.0572,4.0616,4.0654,4.0709,4.0779,4.0797,4.0867,4.0923,4.1015,4.1051,4.1108,4.1102,4.112,4.1125,4.1129,4.1132,4.103,4.112,4.112,4.1119,4.1119,4.1119,0,4.0399,4.0436,4.0491,4.0561,4.061,4.0616,4.0673,4.0713,4.0774,4.0825,4.0879,4.0956,4.102,4.107,4.1137,4.1173,4.118,4.1189,4.1188,4.1197,4.1131,4.1115,4.1182,4.1182,4.1182,4.1182,4.1182,4.1182,4.0442,4.0514,4.0537,4.063,4.0667,4.0736,4.0768,4.0812,4.0854,4.0939,4.0993,4.1025,4.1077,4.1148,4.1208,4.1221,4.1246,4.1254,4.1269,4.1207,4.1201,4.1194,4.1179,4.1259,4.1259,4.133,4.1331,4.1331]}]]